Location: Saint Peter Port
(49.4500°N, 2.5330°W)
Time: 19:00:37
(UTC+01:00)

Cosmos 2242 Rocket - Visible Passes

Search period start: 24 August 2016 00:00
Search period end: 03 September 2016 00:00
Orbit: 620 x 651 km, 82.5° (Epoch: 23 August)

Date Brightness Start Highest point End Pass type
(mag) Time Alt. Az. Time Alt. Az. Time Alt. Az.
24 Aug 6.4 03:00:18 10° ESE 03:02:01 12° E 03:03:45 10° ENE visible
24 Aug 3.6 04:35:49 16° S 04:39:30 87° WNW 04:44:07 10° N visible
25 Aug 5.8 03:21:08 12° SE 03:24:10 22° E 03:27:42 10° NE visible
25 Aug 4.1 04:58:40 16° SW 05:02:05 45° WNW 05:06:31 10° N visible
26 Aug 4.7 03:43:57 22° SSE 03:46:26 41° E 03:50:45 10° NNE visible
26 Aug 4.9 05:21:28 12° WSW 05:24:49 25° WNW 05:28:38 10° NNW visible
27 Aug 3.7 04:06:44 32° S 04:08:52 80° E 04:13:27 10° NNE visible
27 Aug 5.6 05:45:10 10° W 05:47:42 14° WNW 05:50:14 10° NNW visible
28 Aug 5.8 02:51:59 16° ESE 02:53:36 19° E 02:56:48 10° NE visible
28 Aug 3.8 04:29:29 31° SW 04:31:24 54° WNW 04:35:54 10° N visible
29 Aug 4.9 03:14:42 30° ESE 03:15:50 35° E 03:20:00 10° NNE visible
29 Aug 4.7 04:52:13 22° WSW 04:54:06 29° WNW 04:58:06 10° N visible
30 Aug 3.8 03:37:25 55° SSE 03:38:13 67° E 03:42:46 10° NNE visible
30 Aug 5.4 05:14:56 13° W 05:16:57 17° WNW 05:19:53 10° NNW visible
31 Aug 5.9 02:22:35 16° E 02:23:02 16° E 02:25:51 10° NE visible
31 Aug 3.6 04:00:06 56° WSW 04:00:44 64° WNW 04:05:18 10° N visible
01 Sep 5.1 02:45:15 30° E 02:45:15 30° E 02:49:13 10° NNE visible
01 Sep 4.4 04:22:45 32° W 04:23:23 34° WNW 04:27:33 10° N visible
02 Sep 4.2 03:07:54 55° ENE 03:07:54 55° ENE 03:12:04 10° NNE visible
02 Sep 5.2 04:45:24 18° W 04:46:11 19° WNW 04:49:29 10° NNW visible
